SCP
0 0 0 0 0 0 0 0 0 0 0 0 0 0 0 0 0 0 0 0 0 0 0 0 0 0 0 0 0 0 0 0 -0 -0 0 0 0 0 0 0 0 0 1 0
0 0 0 0 0 0 0 0 0 0 0 0 0 0 0 0 0 0 0 0 0 0 0 0 0 0 0 0 0 0 0 0 0 -0 0 0 0 0 0 0 0 0 0 0
0 0 0 0 0 0 0 0 0 0 0 0 0 0 0 0 0 0 0 -0 -0 -0 0 0 0 0 0 0 0 0 0 0 0 -0 -0 0 0 0 0 0 1 0 0 0
0 0 0 0 0 0 0 0 0 0 0 0 0 0 0 0 0 0 0 -0 -0 -0 -0 0 0 0 0 0 0 0 0 0 0 0 -0 0 0 0 0 0 0 0 0 0
0 0 0 0 0 0 0 0 0 0 0 0 0 0 0 0 0 0 -0 -0 -0 -0 0 0 0 0 0 0 0 0 0 0 0 0 0 0 0 0 0 0 0 0 0 0
0 0 0 0 0 0 0 0 0 0 0 0 0 0 0 0 0 0 -0 -0 0 0 0 0 0 0 0 0 0 0 0 0 0 0 -0 0 0 0 0 0 0 0 1 0
0 0 0 0 0 0 0 -0 -0 0 0 0 0 0 0 0 0 0 -0 0 0 0 0 0 0 0 0 0 0 0 0 0 0 0 0 -0 0 0 0 0 0 0 0 0
0 0 0 0 0 0 0 -0 0 0 0 0 0 0 0 0 0 0 0 0 0 0 0 0 0 0 0 0 0 0 0 0 0 0 0 0 0 0 0 0 0 0 0 0
0 0 0 0 0 0 0 0 0 0 0 0 0 0 0 0 0 0 0 0 0 0 -0 0 0 0 0 0 0 0 0 0 0 0 0 0 0 0 0 0 0 0 0 0
0 0 0 0 0 0 0 0 0 0 0 0 0 0 0 0 -0 0 -0 0 0 -0 -0 -0 0 0 0 0 0 0 0 0 0 0 0 0 0 0 0 0 0 0 0 0
0 0 0 0 0 0 0 -0 0 0 0 0 0 0 0 0 0 0 0 0 -0 -0 -0 -0 -0 -0 0 0 0 0 0 0 0 0 0 0 0 0 0 0 0 0 0 0
0 0 0 0 0 0 0 0 0 0 0 0 0 0 0 0 0 0 0 -0 -0 0 -0 -0 -0 -0 0 0 0 0 0 0 0 0 0 0 0 0 0 0 0 0 0 0
0 0 0 0 0 0 0 0 0 0 0 0 0 0 0 0 0 0 0 0 0 0 -0 -0 -0 -0 0 0 0 0 0 0 0 0 0 0 0 0 0 0 0 0 0 0
0 0 0 0 0 0 0 0 0 0 0 0 0 0 0 0 0 0 0 0 0 0 -0 -0 -0 -0 -0 -0 0 -0 0 0 0 0 0 0 0 0 0 0 0 0 0 0
0 0 0 0 0 0 0 0 0 0 0 0 0 0 0 0 0 0 0 0 0 0 -0 -0 -0 -0 -0 -0 -0 -0 0 0 0 0 0 0 0 0 0 0 -0 0 0 0
0 0 0 0 0 0 0 0 0 0 0 0 0 0 0 0 0 0 0 0 0 0 0 0 -0 -0 -0 -0 -0 -0 -0 0 0 0 0 0 0 0 0 -0 0 0 0 0
0 0 0 0 0 0 0 -0 0 0 0 0 0 0 0 0 0 0 0 0 0 0 0 0 0 0 0 0 0 0 0 0 0 0 0 0 0 0 0 0 0 0 0 0
0 0 0 0 0 0 0 0 0 0 0 0 0 0 0 0 0 0 0 0 0 0 0 0 0 0 0 -0 -0 0 0 0 0 0 0 0 0 0 0 0 0 0 0 0
0 0 0 0 0 0 0 -0 -0 0 0 0 0 0 0 0 0 0 0 0 0 0 0 0 0 0 0 0 0 0 0 0 0 0 0 0 0 0 0 0 0 0 0 0
0 0 0 0 0 0 0 -0 0 0 -0 0 0 0 0 0 0 0 0 0 0 0 0 0 0 0 0 0 0 0 0 0 0 0 0 0 0 0 0 0 0 0 0 0
0 0 0 0 0 0 0 0 0 0 -0 0 0 0 0 0 0 0 0 0 0 0 0 0 0 0 0 0 0 0 0 0 0 0 0 0 0 0 0 0 0 0 0 0
0 0 0 0 0 0 0 0 -0 -0 0 0 0 0 0 0 0 0 0 0 0 0 0 0 0 0 0 0 0 0 0 0 0 0 0 0 -0 0 0 0 0 -0 0 0
0 0 0 0 0 0 0 0 0 0 0 0 0 0 0 0 0 0 0 0 0 0 0 0 0 0 0 0 0 0 0 0 0 0 -0 -0 -0 -0 0 0 0 -0 0 0
0 0 0 0 0 0 0 0 0 0 0 0 0 0 0 0 0 0 0 0 0 0 0 0 0 0 0 0 0 0 0 0 -0 -0 -0 -0 -0 -0 -0 -0 0 0 0 0
0 0 0 0 0 0 0 0 0 0 0 0 0 0 -0 0 0 0 -0 0 0 0 0 0 0 0 0 0 -0 0 0 0 -0 -0 -0 0 -0 0 -0 -0 -0 -0 0 -0
0 0 0 0 0 0 0 0 0 0 0 0 0 0 -0 0 0 0 0 -0 0 0 -0 -0 -0 -0 -0 -0 -0 -0 -0 -0 -0 -0 -0 -0 -0 -0 0 0 0 -0 -0 -0
Wind_Speed_500mb
12 12 4 6 3 8 10 15 32 38 30 14 21 43 44 43 15 26 32 41 51 60 72 60 50 44 43 49 52 55 52 52 46 49 70 64 39 40 41 41 60 82 91 88
11 3 3 6 9 10 10 25 22 23 5 38 24 48 32 11 17 27 35 52 57 67 82 77 63 49 43 40 45 51 54 44 43 49 61 81 43 44 53 42 24 35 47 37
6 2 9 5 9 1 8 12 10 29 47 15 14 13 4 1 5 37 50 49 53 49 66 79 72 63 50 38 35 43 48 39 41 43 60 70 76 57 43 33 29 17 24 48
8 8 7 7 7 5 12 9 25 36 12 6 11 9 7 8 11 25 55 66 65 66 70 70 65 65 57 44 37 37 44 42 32 41 50 58 90 66 43 58 30 26 24 49
9 5 7 6 9 4 18 36 28 11 6 5 10 2 10 8 15 37 50 62 62 65 68 71 56 54 55 47 35 33 38 44 32 32 46 52 63 77 42 53 43 37 31 32
11 9 5 7 15 4 15 16 6 6 6 5 6 6 9 3 13 40 43 65 67 70 69 61 47 42 41 36 24 27 32 45 39 24 40 46 54 68 43 52 45 40 36 32
14 6 5 4 9 8 19 12 9 12 9 8 6 3 15 7 25 32 44 58 67 68 69 66 54 44 33 26 17 8 34 41 48 32 51 38 45 43 58 56 32 36 30 26
7 15 5 9 6 7 6 9 6 7 8 14 8 8 9 6 46 51 50 52 56 61 66 61 49 39 32 23 9 5 17 42 49 48 43 53 41 54 51 41 51 41 33 23
5 12 9 4 4 7 10 8 5 5 3 3 7 13 5 13 32 42 50 57 61 63 65 59 45 35 30 23 14 5 14 28 36 47 48 44 47 42 55 56 45 36 34 27
8 9 4 11 2 6 10 3 8 5 10 13 11 9 8 37 53 46 44 58 64 70 66 55 43 38 29 22 14 9 4 18 32 33 38 42 42 40 44 51 47 41 25 24
7 9 12 4 2 8 8 7 4 1 6 6 10 9 7 23 35 38 39 57 58 59 59 51 43 36 30 21 13 10 7 3 18 24 27 32 32 41 36 45 50 38 22 28
10 8 10 16 3 6 9 11 7 3 8 6 7 9 4 24 28 39 45 54 56 57 53 46 40 36 29 25 18 12 9 5 8 15 17 21 26 24 34 40 40 31 33 36
9 3 8 16 8 4 4 7 7 6 5 5 6 11 23 41 29 44 44 53 55 55 52 50 46 40 34 26 19 12 7 4 9 13 17 22 30 39 43 40 39 36 38 43
9 6 13 12 15 5 8 9 3 5 4 8 9 21 28 36 31 47 54 60 57 57 55 51 48 41 33 25 18 13 8 2 3 6 15 25 33 38 40 42 33 43 42 35
8 9 5 13 21 8 20 22 13 12 10 9 11 5 19 29 29 40 49 57 58 62 60 54 51 47 41 32 23 17 11 5 7 12 22 25 31 37 38 38 40 39 37 36
3 6 3 11 5 9 13 21 16 10 7 12 12 16 11 18 35 47 48 57 56 59 60 56 53 50 51 44 35 28 23 20 23 30 34 37 42 45 48 53 50 51 56 63
6 6 5 12 10 11 11 14 13 8 7 10 6 13 4 9 15 30 50 52 50 53 56 58 58 57 55 53 50 49 44 38 44 48 53 58 65 70 70 71 77 75 69 64
10 7 4 8 11 7 12 6 8 12 13 15 12 12 16 13 19 23 31 37 46 49 51 53 56 58 60 60 64 62 63 64 64 70 72 73 74 76 73 72 73 67 62 59
6 8 2 3 4 14 6 8 13 12 14 19 13 10 16 12 11 4 29 29 31 35 42 46 48 51 54 56 60 66 72 74 73 72 72 69 71 73 71 69 66 60 54 53
11 14 6 4 5 9 10 7 11 8 9 20 26 13 6 3 5 4 24 26 28 33 40 40 39 41 46 51 54 57 62 65 66 61 58 58 59 60 59 55 51 51 48 48
6 1 8 7 8 19 10 15 15 10 10 30 31 20 16 6 5 5 14 18 24 32 36 38 44 48 47 45 44 47 50 60 54 50 46 49 50 52 50 47 43 42 41 38
15 15 9 6 3 16 26 13 14 8 9 33 29 24 19 12 7 6 11 16 20 24 28 35 40 45 45 42 40 41 45 44 41 39 38 40 40 41 38 34 35 33 29 26
6 14 9 20 14 7 62 12 31 12 27 31 30 28 21 15 11 9 10 13 14 15 20 27 34 39 42 43 42 39 40 34 32 28 26 26 25 25 25 22 21 18 17 16
10 13 6 5 9 31 42 60 23 24 24 27 28 27 23 17 15 11 9 9 8 7 11 19 25 29 33 37 36 35 32 29 26 22 21 20 16 15 15 14 13 12 10 9
8 18 10 13 21 30 43 58 65 41 34 32 33 31 25 21 16 11 8 5 3 5 10 13 16 21 29 36 36 35 32 29 25 22 19 15 13 11 9 6 2 1 1 2
27 16 11 15 24 16 18 30 65 58 55 45 41 39 35 28 20 14 9 5 1 2 5 8 11 18 27 33 33 31 29 28 27 25 23 21 19 17 15 12 12 12 13 14
Wind_Direction_500mb
351 61 66 348 143 223 264 270 279 290 296 296 277 295 294 317 40 47 13 349 338 331 334 331 322 312 292 278 269 257 255 255 269 266 245 242 277 282 283 302 237 216 235 240
14 101 16 302 248 241 252 285 285 290 263 320 308 297 309 107 78 44 7 354 341 333 334 332 326 317 304 291 273 254 249 250 257 264 247 237 263 286 286 295 287 247 220 214
143 215 315 251 302 238 268 241 276 293 325 300 333 312 190 3 114 0 352 342 336 328 326 328 328 322 312 297 282 260 242 241 252 258 247 246 240 283 285 280 280 238 228 228
221 296 320 337 281 88 315 229 306 304 338 295 57 286 252 327 322 347 342 341 335 330 328 328 328 325 318 301 282 254 238 230 245 252 235 243 230 259 292 272 265 259 221 225
264 307 354 335 279 101 250 310 314 297 174 298 325 315 268 11 340 340 334 334 330 326 326 328 332 326 326 313 273 244 234 216 234 241 228 242 233 229 277 262 254 257 244 243
250 298 229 248 304 221 307 321 13 61 82 18 232 76 278 348 324 327 336 329 328 327 327 335 335 337 338 333 290 241 225 207 218 237 231 226 229 228 269 275 259 243 240 239
328 277 299 304 336 338 25 14 348 359 0 247 179 328 253 176 342 337 331 329 326 326 332 339 339 346 352 346 358 269 205 211 217 232 224 234 227 227 245 258 260 239 234 221
45 329 12 339 133 236 24 104 117 293 314 296 18 231 304 196 347 336 328 325 329 329 336 338 342 345 358 360 21 128 197 208 219 222 222 225 229 211 235 255 237 229 232 230
67 280 299 210 332 108 304 34 212 244 191 353 277 295 313 311 335 342 341 339 336 335 338 343 349 350 358 3 6 45 186 198 210 220 220 224 231 213 219 226 235 236 231 220
203 322 231 280 107 4 125 251 8 10 320 304 291 290 265 338 348 343 342 339 336 338 342 348 355 353 358 4 352 348 329 206 208 210 217 223 224 226 218 225 220 222 226 228
133 115 288 336 44 182 2 3 10 158 250 288 307 288 255 339 350 331 331 331 333 338 348 352 356 358 3 360 355 357 338 232 214 227 231 239 232 233 225 229 222 222 221 216
196 158 275 241 260 162 165 197 196 227 303 252 262 284 231 349 345 331 332 335 342 352 0 2 3 7 11 8 9 359 344 308 246 247 236 231 221 213 210 217 207 211 205 205
167 289 335 347 17 15 223 210 191 233 286 258 322 288 350 334 341 350 345 344 349 360 9 13 15 16 13 11 5 359 342 287 244 239 226 218 209 201 193 190 175 183 189 191
172 206 182 205 223 146 283 288 185 119 118 273 233 290 323 333 340 350 349 351 355 5 15 21 23 24 24 21 15 14 15 4 248 221 202 199 180 173 181 175 162 175 176 179
137 217 261 252 265 204 251 252 236 193 227 177 260 281 309 337 334 342 345 356 0 6 17 26 30 33 37 40 41 44 48 86 145 157 157 156 152 153 157 144 157 158 158 146
113 265 116 289 267 272 259 253 222 209 236 276 274 279 216 329 341 345 351 358 358 5 18 31 39 43 47 49 53 61 71 94 122 124 121 123 126 131 125 132 127 130 126 118
137 128 59 270 329 331 325 233 180 197 207 167 237 229 304 309 339 346 351 360 0 11 23 33 42 48 55 59 64 71 79 91 100 102 102 104 108 110 114 113 116 114 109 110
133 96 90 264 349 7 242 171 166 193 231 213 279 268 250 250 305 319 355 1 6 16 23 31 39 49 57 67 72 75 80 84 84 88 92 94 97 98 101 101 97 100 103 103
135 115 31 102 259 289 291 207 183 175 279 194 207 249 270 297 302 272 359 6 7 19 29 34 38 46 51 56 63 70 71 70 71 71 76 80 83 86 87 87 91 93 93 98
107 81 119 97 154 231 240 180 162 126 292 184 192 206 215 329 41 291 359 12 21 28 37 42 46 49 52 49 50 55 63 67 66 68 71 75 82 84 86 88 90 93 101 101
144 5 195 190 237 286 229 159 146 83 248 174 191 194 183 180 175 351 19 33 42 49 50 47 47 46 46 48 51 55 59 62 59 63 67 73 77 80 81 85 88 89 88 91
172 151 197 87 87 283 162 120 173 199 148 172 183 186 179 163 145 70 55 66 68 64 56 50 47 46 45 47 49 52 55 56 57 58 60 64 65 67 71 74 78 78 80 89
279 194 181 189 213 221 186 215 197 188 174 181 189 186 179 167 143 110 96 93 80 69 57 47 42 39 38 40 44 45 51 54 58 59 61 64 67 74 79 77 80 84 82 74
243 184 219 65 252 228 223 222 211 215 203 193 190 192 184 166 155 146 115 104 87 64 40 32 31 30 33 38 43 45 45 46 49 52 55 59 62 71 77 76 76 65 61 48
191 146 194 266 272 265 255 228 225 217 207 202 196 194 190 186 177 165 147 114 64 11 11 12 16 19 24 27 31 33 36 39 43 50 56 58 61 59 53 49 77 152 224 254
189 190 179 229 227 222 265 254 219 207 206 202 199 196 193 192 188 182 172 170 174 359 339 350 356 9 19 21 22 28 31 31 33 32 33 33 29 22 22 33 40 28 13 5
Wind_Speed_850mb
12 12 4 6 3 8 10 15 32 38 30 14 21 43 44 43 15 26 32 41 51 60 72 60 50 44 43 49 52 55 52 52 46 49 70 64 39 40 41 41 60 82 91 88
11 3 3 6 9 10 10 25 22 23 5 38 24 48 32 11 17 27 35 52 57 67 82 77 63 49 43 40 45 51 54 44 43 49 61 81 43 44 53 42 24 35 47 37
6 2 9 5 9 1 8 12 10 29 47 15 14 13 4 1 5 37 50 49 53 49 66 79 72 63 50 38 35 43 48 39 41 43 60 70 76 57 43 33 29 17 24 48
8 8 7 7 7 5 12 9 25 36 12 6 11 9 7 8 11 25 55 66 65 66 70 70 65 65 57 44 37 37 44 42 32 41 50 58 90 66 43 58 30 26 24 49
9 5 7 6 9 4 18 36 28 11 6 5 10 2 10 8 15 37 50 62 62 65 68 71 56 54 55 47 35 33 38 44 32 32 46 52 63 77 42 53 43 37 31 32
11 9 5 7 15 4 15 16 6 6 6 5 6 6 9 3 13 40 43 65 67 70 69 61 47 42 41 36 24 27 32 45 39 24 40 46 54 68 43 52 45 40 36 32
14 6 5 4 9 8 19 12 9 12 9 8 6 3 15 7 25 32 44 58 67 68 69 66 54 44 33 26 17 8 34 41 48 32 51 38 45 43 58 56 32 36 30 26
7 15 5 9 6 7 6 9 6 7 8 14 8 8 9 6 46 51 50 52 56 61 66 61 49 39 32 23 9 5 17 42 49 48 43 53 41 54 51 41 51 41 33 23
5 12 9 4 4 7 10 8 5 5 3 3 7 13 5 13 32 42 50 57 61 63 65 59 45 35 30 23 14 5 14 28 36 47 48 44 47 42 55 56 45 36 34 27
8 9 4 11 2 6 10 3 8 5 10 13 11 9 8 37 53 46 44 58 64 70 66 55 43 38 29 22 14 9 4 18 32 33 38 42 42 40 44 51 47 41 25 24
7 9 12 4 2 8 8 7 4 1 6 6 10 9 7 23 35 38 39 57 58 59 59 51 43 36 30 21 13 10 7 3 18 24 27 32 32 41 36 45 50 38 22 28
10 8 10 16 3 6 9 11 7 3 8 6 7 9 4 24 28 39 45 54 56 57 53 46 40 36 29 25 18 12 9 5 8 15 17 21 26 24 34 40 40 31 33 36
9 3 8 16 8 4 4 7 7 6 5 5 6 11 23 41 29 44 44 53 55 55 52 50 46 40 34 26 19 12 7 4 9 13 17 22 30 39 43 40 39 36 38 43
9 6 13 12 15 5 8 9 3 5 4 8 9 21 28 36 31 47 54 60 57 57 55 51 48 41 33 25 18 13 8 2 3 6 15 25 33 38 40 42 33 43 42 35
8 9 5 13 21 8 20 22 13 12 10 9 11 5 19 29 29 40 49 57 58 62 60 54 51 47 41 32 23 17 11 5 7 12 22 25 31 37 38 38 40 39 37 36
3 6 3 11 5 9 13 21 16 10 7 12 12 16 11 18 35 47 48 57 56 59 60 56 53 50 51 44 35 28 23 20 23 30 34 37 42 45 48 53 50 51 56 63
6 6 5 12 10 11 11 14 13 8 7 10 6 13 4 9 15 30 50 52 50 53 56 58 58 57 55 53 50 49 44 38 44 48 53 58 65 70 70 71 77 75 69 64
10 7 4 8 11 7 12 6 8 12 13 15 12 12 16 13 19 23 31 37 46 49 51 53 56 58 60 60 64 62 63 64 64 70 72 73 74 76 73 72 73 67 62 59
6 8 2 3 4 14 6 8 13 12 14 19 13 10 16 12 11 4 29 29 31 35 42 46 48 51 54 56 60 66 72 74 73 72 72 69 71 73 71 69 66 60 54 53
11 14 6 4 5 9 10 7 11 8 9 20 26 13 6 3 5 4 24 26 28 33 40 40 39 41 46 51 54 57 62 65 66 61 58 58 59 60 59 55 51 51 48 48
6 1 8 7 8 19 10 15 15 10 10 30 31 20 16 6 5 5 14 18 24 32 36 38 44 48 47 45 44 47 50 60 54 50 46 49 50 52 50 47 43 42 41 38
15 15 9 6 3 16 26 13 14 8 9 33 29 24 19 12 7 6 11 16 20 24 28 35 40 45 45 42 40 41 45 44 41 39 38 40 40 41 38 34 35 33 29 26
6 14 9 20 14 7 62 12 31 12 27 31 30 28 21 15 11 9 10 13 14 15 20 27 34 39 42 43 42 39 40 34 32 28 26 26 25 25 25 22 21 18 17 16
10 13 6 5 9 31 42 60 23 24 24 27 28 27 23 17 15 11 9 9 8 7 11 19 25 29 33 37 36 35 32 29 26 22 21 20 16 15 15 14 13 12 10 9
8 18 10 13 21 30 43 58 65 41 34 32 33 31 25 21 16 11 8 5 3 5 10 13 16 21 29 36 36 35 32 29 25 22 19 15 13 11 9 6 2 1 1 2
27 16 11 15 24 16 18 30 65 58 55 45 41 39 35 28 20 14 9 5 1 2 5 8 11 18 27 33 33 31 29 28 27 25 23 21 19 17 15 12 12 12 13 14
Wind_Direction_850mb
351 61 66 348 143 223 264 270 279 290 296 296 277 295 294 317 40 47 13 349 338 331 334 331 322 312 292 278 269 257 255 255 269 266 245 242 277 282 283 302 237 216 235 240
14 101 16 302 248 241 252 285 285 290 263 320 308 297 309 107 78 44 7 354 341 333 334 332 326 317 304 291 273 254 249 250 257 264 247 237 263 286 286 295 287 247 220 214
143 215 315 251 302 238 268 241 276 293 325 300 333 312 190 3 114 0 352 342 336 328 326 328 328 322 312 297 282 260 242 241 252 258 247 246 240 283 285 280 280 238 228 228
221 296 320 337 281 88 315 229 306 304 338 295 57 286 252 327 322 347 342 341 335 330 328 328 328 325 318 301 282 254 238 230 245 252 235 243 230 259 292 272 265 259 221 225
264 307 354 335 279 101 250 310 314 297 174 298 325 315 268 11 340 340 334 334 330 326 326 328 332 326 326 313 273 244 234 216 234 241 228 242 233 229 277 262 254 257 244 243
250 298 229 248 304 221 307 321 13 61 82 18 232 76 278 348 324 327 336 329 328 327 327 335 335 337 338 333 290 241 225 207 218 237 231 226 229 228 269 275 259 243 240 239
328 277 299 304 336 338 25 14 348 359 0 247 179 328 253 176 342 337 331 329 326 326 332 339 339 346 352 346 358 269 205 211 217 232 224 234 227 227 245 258 260 239 234 221
45 329 12 339 133 236 24 104 117 293 314 296 18 231 304 196 347 336 328 325 329 329 336 338 342 345 358 360 21 128 197 208 219 222 222 225 229 211 235 255 237 229 232 230
67 280 299 210 332 108 304 34 212 244 191 353 277 295 313 311 335 342 341 339 336 335 338 343 349 350 358 3 6 45 186 198 210 220 220 224 231 213 219 226 235 236 231 220
203 322 231 280 107 4 125 251 8 10 320 304 291 290 265 338 348 343 342 339 336 338 342 348 355 353 358 4 352 348 329 206 208 210 217 223 224 226 218 225 220 222 226 228
133 115 288 336 44 182 2 3 10 158 250 288 307 288 255 339 350 331 331 331 333 338 348 352 356 358 3 360 355 357 338 232 214 227 231 239 232 233 225 229 222 222 221 216
196 158 275 241 260 162 165 197 196 227 303 252 262 284 231 349 345 331 332 335 342 352 0 2 3 7 11 8 9 359 344 308 246 247 236 231 221 213 210 217 207 211 205 205
167 289 335 347 17 15 223 210 191 233 286 258 322 288 350 334 341 350 345 344 349 360 9 13 15 16 13 11 5 359 342 287 244 239 226 218 209 201 193 190 175 183 189 191
172 206 182 205 223 146 283 288 185 119 118 273 233 290 323 333 340 350 349 351 355 5 15 21 23 24 24 21 15 14 15 4 248 221 202 199 180 173 181 175 162 175 176 179
137 217 261 252 265 204 251 252 236 193 227 177 260 281 309 337 334 342 345 356 0 6 17 26 30 33 37 40 41 44 48 86 145 157 157 156 152 153 157 144 157 158 158 146
113 265 116 289 267 272 259 253 222 209 236 276 274 279 216 329 341 345 351 358 358 5 18 31 39 43 47 49 53 61 71 94 122 124 121 123 126 131 125 132 127 130 126 118
137 128 59 270 329 331 325 233 180 197 207 167 237 229 304 309 339 346 351 360 0 11 23 33 42 48 55 59 64 71 79 91 100 102 102 104 108 110 114 113 116 114 109 110
133 96 90 264 349 7 242 171 166 193 231 213 279 268 250 250 305 319 355 1 6 16 23 31 39 49 57 67 72 75 80 84 84 88 92 94 97 98 101 101 97 100 103 103
135 115 31 102 259 289 291 207 183 175 279 194 207 249 270 297 302 272 359 6 7 19 29 34 38 46 51 56 63 70 71 70 71 71 76 80 83 86 87 87 91 93 93 98
107 81 119 97 154 231 240 180 162 126 292 184 192 206 215 329 41 291 359 12 21 28 37 42 46 49 52 49 50 55 63 67 66 68 71 75 82 84 86 88 90 93 101 101
144 5 195 190 237 286 229 159 146 83 248 174 191 194 183 180 175 351 19 33 42 49 50 47 47 46 46 48 51 55 59 62 59 63 67 73 77 80 81 85 88 89 88 91
172 151 197 87 87 283 162 120 173 199 148 172 183 186 179 163 145 70 55 66 68 64 56 50 47 46 45 47 49 52 55 56 57 58 60 64 65 67 71 74 78 78 80 89
279 194 181 189 213 221 186 215 197 188 174 181 189 186 179 167 143 110 96 93 80 69 57 47 42 39 38 40 44 45 51 54 58 59 61 64 67 74 79 77 80 84 82 74
243 184 219 65 252 228 223 222 211 215 203 193 190 192 184 166 155 146 115 104 87 64 40 32 31 30 33 38 43 45 45 46 49 52 55 59 62 71 77 76 76 65 61 48
191 146 194 266 272 265 255 228 225 217 207 202 196 194 190 186 177 165 147 114 64 11 11 12 16 19 24 27 31 33 36 39 43 50 56 58 61 59 53 49 77 152 224 254
189 190 179 229 227 222 265 254 219 207 206 202 199 196 193 192 188 182 172 170 174 359 339 350 356 9 19 21 22 28 31 31 33 32 33 33 29 22 22 33 40 28 13 5